Find Starlink 5928

NORAD ID: 55958 Int'l Des: 2023-037 Owner: SPXS Country: US Constellation: starlink operational
LEOCIRCULAR

Live Position

Loading 3D Globe...

About Starlink 5928

Description loading...

Upcoming Passes

Passes for default location (London). Set your location on the main map for personalized predictions.

Altitude History

Loading altitude history...

Two-Line Element Set

1 55958U 23037AW 26112.22231380 .00009896 00000-0 83602-3 0 9994
2 55958 70.0032 154.7088 0002561 265.0148 95.0719 14.98328974170991
Epoch: Apr 22, 2026 • Age: 13 hours

Current Status

Altitude 575.4 km
Velocity 7.58 km/s
Sub-Earth Point 24.33°N, 37.92°E
Launch Date Mar 17, 2023
Age 3 years
Type internet

Technical Details

Classification Payload
Mass 305.00 kg
Dry Mass 290.00 kg
Total Mass 305.00 kg
Length 0.20 m
Diameter 2.80 m
Span 9.00 m
Shape Box + pan
Manufacturer SPXS
Bus Type Starlink
Phase Status In Orbit
Owner/State SPXS/US

Most Searched